Location: Hauterive
(46.7644°N, 7.1175°E)
Time: 04:25:05
(UTC+00:00)

Daily predictions for brighter satellites

Satellite Brightness Start Highest point End
(mag) Time Altitude Azimuth Time Altitude Azimuth Time Altitude Azimuth
Mayak 1.6 00:01:01 10° NW 00:01:29 10° WNW 00:01:35 10° WNW
CZ-2D R/B 4.1 00:03:04 10° NE 00:06:45 18° E 00:06:55 18° E
Meteor 1-24 Rocket 4.3 00:10:01 10° NNW 00:14:02 48° NW 00:14:02 48° NW
USA 215 3.1 00:09:35 10° NE 00:16:00 74° SE 00:16:00 74° SE
CZ-4C R/B 3.4 00:19:00 32° WNW 00:20:24 37° NW 00:26:12 10° NNE
Cosmos 1535 Rocket 4.5 00:14:03 10° N 00:20:25 75° E 00:20:38 74° E
Meteor 2-12 Rocket 4.4 00:14:28 10° N 00:20:12 80° NNW 00:20:12 80° NNW
SL-16 R/B 4.4 00:21:40 10° WNW 00:23:06 14° WNW 00:23:06 14° WNW
Cosmos 1821 Rocket 4.0 00:19:39 10° NNW 00:25:44 70° WNW 00:25:44 70° WNW
Cosmos 2227 Rocket 3.8 00:38:06 22° ESE 00:38:21 22° E 00:42:34 10° NE
Cosmos 1934 Rocket 3.8 00:33:06 10° N 00:39:04 83° WNW 00:39:04 83° WNW
COSMOS 2428 2.9 00:36:26 10° NNW 00:41:13 62° NW 00:41:13 62° NW
Cosmos 407 Rocket 3.7 00:37:45 10° NNW 00:42:21 66° N 00:42:21 66° N
Cosmos 2360 Rocket 3.9 00:41:12 10° NW 00:43:35 20° WNW 00:43:35 20° WNW
Cosmos 1140 Rocket 3.8 00:44:14 10° NNW 00:49:26 60° ENE 00:49:37 60° ENE
SeaSat 1 3.6 00:45:00 10° NE 00:48:57 34° E 00:48:57 34° E
Timation 2 Rocket 4.2 00:49:07 62° W 00:49:55 67° WNW 00:56:31 10° NNE
USA 267 3.1 00:47:35 32° SE 00:50:58 89° SSW 00:57:34 10° NW
Cosmos 2219 Rocket 2.6 00:48:14 10° NNW 00:52:37 52° WNW 00:52:37 52° WNW
Cosmos 2297 Rocket 3.4 00:54:03 30° ESE 00:54:25 31° ESE 00:59:19 10° NE
MOZ.5/SAFIR/RUBIN 5/SL-8 4.2 00:55:22 59° ENE 00:55:22 59° ENE 00:59:54 10° N
SL-16 R/B 2.6 00:57:14 56° SE 00:58:31 73° ENE 01:04:41 10° NNW
NOSS 3-4 (A) 4.5 00:52:32 10° NW 00:59:16 53° NE 01:06:37 10° ESE
Cosmos 676 Rocket 4.4 00:54:11 10° NNW 00:59:29 61° ENE 01:00:08 56° E
Cosmos 1953 Rocket 4.4 00:57:05 10° N 01:00:15 46° NNW 01:00:15 46° NNW
NOSS 3-3 (C) 3.8 01:08:00 75° SW 01:08:35 89° ESE 01:15:19 10° NE
NOSS 3-3 (A) 3.8 01:08:00 75° SW 01:08:36 90° NE 01:15:21 10° NE
Resurs 1-4 Rocket 2.3 01:05:52 10° NNE 01:11:06 61° ESE 01:11:22 60° ESE
CZ-4B R/B 3.9 01:06:57 10° N 01:11:01 50° NW 01:11:01 50° NW
Cosmos 1953 3.6 01:13:03 36° NNW 01:13:03 36° NNW 01:15:34 10° N
CZ-4B R/B 4.4 01:10:41 10° E 01:11:54 12° ENE 01:13:08 10° NE
UNK 3.9 01:13:53 70° N 01:13:53 70° N 01:18:03 10° NNW
COSMOS 2455 3.3 01:08:41 10° NW 01:13:18 44° W 01:13:18 44° W
Cosmos 2237 Rocket 2.2 01:10:47 10° NNW 01:16:30 81° ENE 01:17:34 60° SE
Cosmos 1727 Rocket 4.0 01:15:26 60° SSE 01:16:39 77° E 01:23:01 10° NNE
Cosmos 1980 3.6 01:12:17 10° NNW 01:17:59 88° ENE 01:18:41 70° SSE
Cosmos 1726 Rocket 4.2 01:19:20 51° NNW 01:19:20 51° NNW 01:22:49 10° N
Cosmos 2173 Rocket 4.5 01:16:40 10° N 01:22:49 56° ENE 01:25:56 29° SE
H-2A R/B 2.7 01:24:37 48° NNW 01:24:37 48° NNW 01:27:42 10° NNW
SL-16 R/B 3.4 01:19:02 10° NNW 01:24:23 41° NE 01:29:42 10° SE
Cosmos 2056 Rocket 3.5 01:25:48 71° W 01:26:01 72° WNW 01:31:28 10° NNE
Meteor 1-11 4.4 01:24:17 10° N 01:29:54 69° ENE 01:31:36 45° SE
ERBS 4.2 01:31:10 30° NNE 01:31:10 30° NNE 01:33:19 10° NE
Cosmos 2333 Rocket 3.5 01:29:46 10° NW 01:32:55 26° WNW 01:32:55 26° WNW
Meteor 2-10 4.3 01:36:24 55° SSE 01:37:40 75° E 01:43:25 10° NNE
Cosmos 2219 3.1 01:39:16 63° SW 01:40:10 77° WNW 01:45:58 10° NNE
Cosmos 1153 Rocket 4.5 01:34:11 10° NNW 01:40:33 68° W 01:41:53 54° SSW
Cosmos 2082 4.5 01:39:32 36° SSE 01:41:09 44° ESE 01:46:34 10° NE
SL-08 R/B 3.5 01:43:08 50° SSE 01:44:26 77° ENE 01:49:25 10° N
Cosmos 1624 Rocket 4.4 01:44:04 48° W 01:44:33 49° WNW 01:49:39 10° NNE
ATLAS 2AS CENTAUR R/B 2.7 01:37:06 10° NW 01:44:49 72° SW 01:50:36 16° SSE
Cosmos 1812 Rocket 4.2 01:45:22 42° SE 01:46:08 47° E 01:50:21 10° NNE
Cosmos 1908 3.5 01:46:36 65° NE 01:46:36 65° NE 01:49:59 10° NNE
CZ-4C R/B 3.9 01:47:12 47° N 01:47:12 47° N 01:49:48 10° NNW
Alouette 2 Rocket 4.4 01:47:45 38° NW 01:47:45 38° NW 01:51:42 10° N
CZ-2D R/B 2.1 01:41:54 10° N 01:47:21 71° WNW 01:48:14 59° SW
Cosmos 2228 4.3 01:51:43 28° NW 01:51:43 28° NW 01:54:52 10° N
Cosmos 2016 Rocket 4.3 01:45:30 10° N 01:51:39 64° ENE 01:55:57 20° SSE
ARIANE 5 R/B 3.2 01:47:09 10° NNE 01:52:15 50° E 01:54:16 33° SSE
Cosmos 2100 Rocket 3.9 01:46:53 10° N 01:53:17 84° W 01:55:55 38° S
Cosmos 1726 2.8 01:55:01 48° NNW 01:55:01 48° NNW 01:57:59 10° N
ADEOS II 2.8 01:49:45 10° NNE 01:54:51 49° E 01:57:05 30° SSE
NOSS 0 Rocket 4.5 01:51:41 10° NW 01:56:56 38° W 01:56:56 38° W
Cosmos 1802 Rocket 3.9 01:52:10 10° N 01:58:21 84° E 02:01:48 28° SSE
USA 215 3.9 01:52:44 10° NE 01:58:58 50° NNW 02:03:19 20° W
IRS-1D 3.5 01:56:17 10° NNE 02:01:28 83° WNW 02:02:47 52° SSW
Cosmos 1356 4.4 02:03:30 39° ESE 02:03:48 40° E 02:07:05 10° NNE
Cosmos 1420 Rocket 4.0 02:03:56 54° SW 02:05:05 74° WNW 02:10:24 10° NNE
CBERS-1 4.1 02:04:23 10° N 02:09:26 60° WNW 02:10:35 48° WSW
BREEZE-M DEB (TANK) 2.8 02:09:51 66° SW 02:10:19 79° SSE 02:18:11 10° ENE
Cosmos 2123 Rocket 4.3 02:06:44 24° SSE 02:10:31 64° E 02:16:43 10° NNE
Cosmos 1300 3.5 02:11:01 37° SE 02:12:01 47° E 02:15:43 10° NNE
Cosmos 1459 Rocket 3.9 02:06:49 10° NNW 02:12:56 65° W 02:15:26 36° SSW
IRS-1C 4.0 02:08:07 10° NNE 02:13:29 81° WNW 02:15:21 42° SSW
Cosmos 2058 Rocket 4.3 02:14:26 28° WNW 02:14:28 28° WNW 02:18:24 10° NNW
Cosmos 1271 Rocket 4.1 02:12:51 10° NNW 02:15:07 27° WNW 02:15:07 27° WNW
NPP 4.2 02:11:23 10° N 02:16:26 42° WNW 02:17:48 35° WSW
Cosmos 2227 Rocket 2.3 02:19:56 40° SW 02:21:53 63° WNW 02:27:32 10° NNE
AQUA 4.5 02:17:49 10° N 02:22:15 39° WNW 02:23:09 35° W
ERS-1 4.3 02:17:41 10° NNE 02:22:41 86° WNW 02:24:38 38° SSW
Cosmos 1076 Rocket 3.3 02:18:35 10° N 02:22:52 82° W 02:24:16 42° S
Cosmos 1452 Rocket 3.6 02:21:53 41° SW 02:23:31 61° WNW 02:28:45 10° NNE
SeaSat 1 3.2 02:22:28 10° NNE 02:27:03 39° NW 02:28:44 30° W
Cosmos 1689 Rocket 2.7 02:26:57 39° SE 02:27:46 56° ENE 02:30:47 10° N
Cosmos 1725 Rocket 3.9 02:22:34 10° N 02:28:49 88° W 02:34:24 13° S
USA 267 3.9 02:34:49 29° WSW 02:34:49 29° WSW 02:40:04 10° WNW
IDEFIX/ARIANE 42P 4.5 02:31:19 10° NE 02:35:41 26° E 02:40:02 10° SSE
Cosmos 2151 3.9 02:33:19 10° N 02:37:25 49° ENE 02:41:30 10° SSE
Cosmos 2297 Rocket 2.7 02:35:52 30° WSW 02:38:15 47° NW 02:43:44 10° NNE
deb Chang Zheng 4 4.3 02:35:21 10° N 02:39:21 38° WNW 02:40:23 33° W
Cosmos 1242 Rocket 3.0 02:37:30 10° NNW 02:40:27 38° W 02:40:27 38° W
SL-16 R/B 3.8 02:42:21 20° W 02:42:44 21° W 02:47:13 10° NW
CZ-4B R/B 1.5 02:43:57 47° W 02:43:57 47° W 02:47:04 10° NNW
Cosmos 1864 Rocket 4.5 02:39:35 10° NNW 02:45:52 66° W 02:51:25 13° S
NOSS 3-4 (A) 4.1 02:43:34 10° NW 02:50:14 45° WSW 02:57:28 10° S
NOSS 3-4 (C) 4.1 02:43:40 10° NW 02:50:22 46° WSW 02:57:36 10° S
Resurs 1-4 Rocket 3.6 02:46:33 10° NNW 02:50:30 22° WNW 02:52:26 18° W
Cosmos 1461 3.1 02:49:47 34° WSW 02:51:15 54° NW 02:55:11 10° NNE
Cosmos 1892 3.3 02:49:24 10° N 02:53:11 57° ENE 02:56:58 10° SSE
Intercosmos 25 Rocket 2.8 02:52:28 37° SSW 02:53:36 68° W 02:56:46 10° N
Okean 3 Rocket 3.4 02:50:43 10° NNW 02:55:07 76° W 02:59:21 11° S
RESURS DK-1 4.4 02:51:33 10° NNW 02:55:18 32° NE 02:59:02 10° ESE
Cosmos 1943 4.4 02:49:57 10° NNW 02:55:27 46° NE 03:00:54 10° SE
OE (NEXTSAT) 4.2 02:54:30 35° W 02:55:50 80° S 02:59:20 10° E
Cosmos 1766 Rocket 3.6 02:53:17 10° N 02:57:48 85° E 03:02:17 10° S
Cosmos 1603 4.1 02:54:13 10° NNW 02:59:49 65° ENE 03:05:25 10° SE
Cosmos 2237 Rocket 3.7 02:56:22 10° WNW 02:59:18 16° W 02:59:18 16° W
Meteor 2-1 Rocket 4.3 02:58:36 17° SSW 03:03:19 75° W 03:09:11 10° N
SL-16 R/B 2.7 03:03:19 10° NW 03:08:26 36° WSW 03:13:32 10° S
CZ-2D R/B 4.0 03:05:40 10° N 03:09:52 45° WNW 03:12:21 21° SW
CZ-2C R/B 3.1 03:08:22 10° N 03:12:17 52° WNW 03:14:51 20° SW
CZ-2C R/B 4.4 03:15:21 10° NE 03:19:07 25° E 03:22:54 10° SSE
Cosmos 2058 3.9 03:20:23 10° NNW 03:23:51 27° W 03:26:05 17° SW
CZ-2D R/B 4.2 03:24:06 10° NNW 03:26:26 13° NW 03:28:46 10° WNW
Cosmos 1238 Rocket 2.0 03:25:42 10° N 03:28:39 90° WSW 03:31:48 10° S
Cosmos 1842 Rocket 4.0 03:24:48 10° S 03:29:09 63° E 03:33:30 10° NNE
ARIANE 5 R/B 3.8 03:26:47 10° N 03:31:04 26° WNW 03:34:35 13° WSW
Cosmos 2221 3.6 03:29:09 10° SSE 03:33:21 47° E 03:37:35 10° NNE
Cosmos 1302 Rocket 4.0 03:28:41 10° SSW 03:33:54 88° WNW 03:39:09 10° NNE
ADEOS II 3.3 03:29:58 10° N 03:34:18 26° WNW 03:38:02 13° WSW
ATLAS 2AS CENTAUR R/B 4.2 03:30:17 10° WNW 03:34:21 16° WSW 03:37:42 11° SW
Cosmos 1500 Rocket 3.9 03:33:51 10° N 03:38:11 70° E 03:42:28 10° SSE
Cosmos 1486 Rocket 4.0 03:33:23 10° NNW 03:38:37 84° WSW 03:43:50 10° SSE
ADEOS 3.6 03:33:59 10° N 03:39:13 73° WNW 03:44:24 10° SSW
Cosmos 371 Rocket 3.3 03:35:51 10° SSW 03:40:43 72° WNW 03:45:37 10° NNE
Cosmos 2263 Rocket 2.5 03:35:56 10° SSW 03:41:34 70° ESE 03:47:15 10° NNE
Cosmos 2034 Rocket 4.5 03:36:28 10° N 03:42:46 67° E 03:48:57 10° SSE
Cosmos 1464 Rocket 4.0 03:39:18 10° N 03:45:34 87° W 03:51:52 10° S
Cosmos 1455 2.2 03:42:48 10° SSW 03:46:30 62° W 03:50:14 10° N
Meteor 2-3 Rocket 4.0 03:43:31 10° N 03:49:09 73° ENE 03:54:43 10° SSE
Cosmos-2242 4.2 03:47:43 11° SW 03:51:05 25° WNW 03:54:39 10° NNW
H-2A R/B 2.7 03:53:03 10° N 03:57:16 56° WNW 04:01:18 10° SSW
Cosmos 1503 Rocket 4.2 03:52:00 10° NNW 03:57:23 80° ENE 04:02:39 10° SSE
Cosmos 1825 2.2 03:58:16 10° NNW 04:02:02 61° W 04:05:46 10° S
Cosmos 2285 Rocket 4.3 04:00:12 10° NNW 04:06:17 48° WSW 04:12:23 10° S
Cosmos 1891 Rocket 4.5 04:00:34 10° NNW 04:06:31 63° W 04:12:27 10° S
BREEZE-M DEB (TANK) 4.4 04:09:22 10° WSW 04:24:02 83° NNW 04:28:03 10° ENE
